This demonstration page uses our WeatherBlox Daily Observations layout. Learn more.

Left ArrowRight Arrow

Hourly Observations for November 5, 2015

Temp ( °F °C ) Dew Point ( °F °C ) Humidity (%) Winds ( mph kmh ) Pressure ( in mb ) Visibility ( mi km ) Precip ( " mm )
12:51 am 00:51 Clear 51 10.6 38 3.3 61 61 NNW 8 13 29.92 1013 10 16.0934 N/A
1:51 am 01:51 Clear 51 10.6 38 3.3 61 61 NW 17 28 29.93 1014 10 16.0934 N/A
2:51 am 02:51 Clear 50 10 38 3.3 63 63 NW 21 33 29.93 1014 10 16.0934 N/A
3:51 am 03:51 Mostly Cloudy 46 7.8 40 4.4 79 79 NW 22 35 29.98 1015 10 16.0934 N/A
4:51 am 04:51 Cloudy 47 8.3 34 1.1 61 61 NW 22 35 30.04 1017 10 16.0934 N/A
5:51 am 05:51 Cloudy with Light Rain 45 7.2 35 1.7 68 68 NW 12 19 30.06 1018 10 16.0934 N/A
6:51 am 06:51 Mostly Cloudy 44 6.7 35 1.7 71 71 NW 9 15 30.1 1019 10 16.0934 N/A
7:51 am 07:51 Sunny 47 8.3 35 1.7 63 63 NNW 7 11 30.14 1021 10 16.0934 N/A
8:51 am 08:51 Sunny 50 10 32 undefined 50 50 NW 10 17 30.16 1021 10 16.0934 N/A
9:51 am 09:51 Sunny 53 11.7 28 -2.2 38 38 NW 8 13 30.16 1021 10 16.0934 N/A
10:51 am 10:51 Sunny 56 13.3 25 -3.9 30 30 WNW 6 9 30.15 1021 10 16.0934 N/A
11:51 am 11:51 Sunny 58 14.4 24 -4.4 27 27 VRB 7 11 30.13 1020 10 16.0934 N/A
12:51 pm 12:51 Sunny 59 15 27 -2.8 29 29 W 8 13 30.11 1020 10 16.0934 N/A
1:51 pm 13:51 Sunny 60 15.6 25 -3.9 26 26 WNW 8 13 30.09 1019 10 16.0934 N/A
2:51 pm 14:51 Sunny 62 16.7 25 -3.9 24 24 NNW 12 19 30.08 1019 10 16.0934 N/A
3:51 pm 15:51 Sunny 63 17.2 15 -9.4 15 15 WNW 9 15 30.07 1018 10 16.0934 N/A
4:51 pm 16:51 Sunny 59 15 27 -2.8 29 29 W 12 19 30.07 1018 10 16.0934 N/A
5:51 pm 17:51 Clear 53 11.7 29 -1.7 40 40 NW 5 7 30.08 1019 10 16.0934 N/A
6:51 pm 18:51 Clear 50 10 30 -1.1 46 46 N 6 9 30.09 1019 10 16.0934 N/A
7:51 pm 19:51 Clear 49 9.4 34 1.1 56 56 S 5 7 30.1 1019 10 16.0934 N/A
8:51 pm 20:51 Clear 45 7.2 31 -0.6 58 58 NNE 7 11 30.11 1020 10 16.0934 N/A
9:51 pm 21:51 Clear 43 6.1 31 -0.6 63 63 ENE 3 6 30.12 1020 10 16.0934 N/A
10:51 pm 22:51 Clear 40 4.4 31 -0.6 70 70 NW 7 11 30.13 1020 10 16.0934 N/A
11:51 pm 23:51 Clear 41 5 32 undefined 70 70 N 7 11 30.11 1020 10 16.0934 N/A

Powered by AerisWeather